Location: Rowland
(34.5359°N, 79.2929°W)
Time: 18:37:33
(UTC+00:00)

Transit 2A Rocket - Pass Details

Date: 11 October 2022
Orbit: 589 x 911 km, 66.7° (Epoch: 02 December)

Event Time Altitude Azimuth Distance (km) Brightness Sun altitude
Rises 08:03:11 0° 190° (S) 2,855 - -40.5°
Reaches altitude 10° 08:05:32 10° 183° (S) 1,931 - -40.1°
Maximum altitude 08:09:35 42° 112° (ESE) 841 - -39.3°
Drops below altitude 10° 08:13:38 10° 41° (NE) 1,921 - -38.5°
Exits shadow 08:13:52 - 40° (NE) 2,016 7.8 -38.5°
Sets 08:15:57 0° 35° (NE) 2,839 8.6 -38.1°
